Location: ??????
(55.6500°N, 37.8000°E)
Time: 18:05:30
(UTC+00:00)

CZ-2D R/B - Visible Passes

Search period start: 22 July 2024 00:00
Search period end: 01 August 2024 00:00
Orbit: 789 x 844 km, 98.8° (Epoch: 22 July)

Date Brightness Start Highest point End Pass type
(mag) Time Alt. Az. Time Alt. Az. Time Alt. Az.
22 Jul 2.1 00:06:15 10° NNE 00:11:29 80° WNW 00:16:43 10° SSW visible
22 Jul 4.3 22:05:51 10° NE 22:08:46 15° E 22:11:41 10° ESE visible
22 Jul 2.2 23:44:29 10° NNE 23:49:43 74° ESE 23:54:57 10° S visible
23 Jul 2.7 23:22:47 10° NNE 23:27:53 52° E 23:32:59 10° S visible
24 Jul 3.2 23:01:10 10° NNE 23:06:00 37° E 23:10:49 10° SSE visible
25 Jul 3.7 22:39:40 10° NE 22:44:02 26° E 22:48:22 10° SSE visible
26 Jul 2.3 00:19:19 10° NNE 00:24:29 65° WNW 00:29:40 10° SSW visible
26 Jul 4.1 22:18:24 10° NE 22:22:00 18° E 22:25:35 10° SE visible
26 Jul 2.1 23:57:30 10° NNE 00:02:45 90° ESE 00:08:01 10° SSW visible
27 Jul 4.4 21:57:35 10° ENE 21:59:53 13° E 22:02:10 10° ESE visible
27 Jul 2.4 23:35:45 10° NNE 23:40:57 64° ESE 23:46:06 10° S visible
28 Jul 2.9 23:14:04 10° NNE 23:19:06 45° E 23:24:01 11° S visible
29 Jul 3.4 22:52:29 10° NNE 22:57:10 32° E 23:01:50 10° SSE visible
30 Jul 2.5 00:32:22 10° N 00:37:27 54° WNW 00:42:33 10° SW visible
30 Jul 3.9 22:31:04 10° NE 22:35:10 23° E 22:39:17 10° SE visible
31 Jul 2.2 00:10:31 10° NNE 00:15:45 75° WNW 00:21:01 10° SSW visible
31 Jul 4.3 22:09:55 10° NE 22:13:06 16° E 22:16:17 10° ESE visible
31 Jul 2.2 23:48:43 10° NNE 23:53:59 79° ESE 23:59:02 11° SSW visible
